Vorticity
5 3 5 6 6 5 6 7 9 7 6 7 8 9 6 12 3 10 12 5 11 10 3 12 5 7 6 7 18 8 9 6 -3 -4 6 7 2 0 6 13 10 4 32 18 7
4 6 6 4 3 3 6 6 7 8 8 7 8 7 5 8 5 0 4 8 11 8 5 7 7 7 7 11 18 12 2 16 -4 5 4 3 -3 2 16 8 -6 6 11 -2 14
5 2 2 3 5 5 5 5 6 4 7 7 7 3 5 9 6 3 8 6 9 15 11 4 7 8 7 6 13 13 2 3 16 -4 6 21 31 8 7 -4 1 16 12 9 5
3 6 6 4 4 3 3 4 4 6 5 5 4 4 3 5 5 3 8 7 6 8 5 3 8 7 6 5 11 21 2 1 14 5 10 23 9 6 3 4 12 6 8 6 17
6 5 6 5 4 4 5 3 2 3 4 5 5 3 2 7 3 1 4 6 8 11 3 3 5 7 6 6 12 17 10 8 8 19 12 10 12 12 6 7 4 7 16 6 4
5 5 7 8 8 5 7 9 8 5 5 5 3 4 4 11 2 6 5 3 16 5 11 5 3 8 4 8 14 12 7 6 11 1 14 21 -17 33 10 13 10 11 11 10 8
0 6 7 10 7 6 7 3 4 5 7 5 6 5 6 5 2 8 7 -0 14 4 10 9 3 9 5 8 10 9 16 16 5 0 36 5 15 13 5 -7 7 16 21 4 12
8 10 2 3 4 2 5 8 9 8 7 7 6 7 9 5 6 6 4 5 8 -0 10 5 2 8 5 8 7 21 23 -5 2 2 -16 10 16 5 -8 -3 16 7 11 15 17
19 18 13 6 2 4 2 16 8 8 8 7 7 9 1 6 1 7 5 4 6 5 8 6 5 4 7 9 9 16 -8 3 -0 4 2 12 15 35 10 11 3 7 9 5 19
9 7 8 5 6 12 10 3 6 11 10 8 7 5 7 4 7 6 4 6 7 4 7 10 4 6 8 6 9 22 -8 2 -14 1 5 -15 12 17 1 3 12 12 8 10 11
7 8 7 7 7 9 5 15 13 5 -3 1 9 9 7 5 5 5 6 4 7 8 5 8 5 16 6 5 16 6 3 5 13 7 3 4 12 6 6 6 0 5 13 8 8
10 8 9 9 9 11 13 13 2 1 11 11 9 5 12 6 8 7 6 6 6 13 6 4 13 6 5 4 7 16 3 9 23 -11 2 11 7 2 -2 2 -1 0 12 6 10
6 7 8 8 7 6 6 6 14 9 12 2 15 10 7 -0 11 8 7 6 7 10 10 5 13 1 4 4 8 11 5 9 26 12 0 5 27 0 -15 20 12 1 13 6 5
7 6 4 5 9 8 6 7 6 9 12 8 11 9 5 6 5 5 6 5 4 5 8 4 7 7 6 9 5 6 10 4 8 11 19 13 16 9 -1 12 17 2 8 4 5
7 6 5 7 7 6 9 10 8 10 7 11 5 8 14 14 9 3 13 9 2 3 6 3 9 12 13 4 8 7 11 5 10 9 7 1 7 -18 21 -2 8 15 15 8 -0
8 7 8 9 11 7 11 14 14 11 2 10 9 8 8 15 16 8 0 9 4 6 1 7 4 6 14 4 4 9 3 15 5 3 6 18 -3 1 9 -19 16 0 -1 7 22
7 9 9 9 14 12 11 17 18 -10 16 11 14 12 12 13 20 16 8 6 3 4 3 9 8 24 10 5 5 6 6 13 4 -3 8 12 2 10 5 1 27 -4 2 1 7
16 14 13 17 19 15 18 19 -0 2 4 19 22 13 7 9 8 12 10 11 6 9 6 5 1 19 12 7 3 9 16 9 8 6 3 4 0 8 0 10 -8 -0 -1 0 2
17 16 19 24 20 20 18 5 -6 20 28 24 22 50 20 14 9 4 9 8 5 6 8 17 9 18 7 6 9 13 6 15 12 1 -27 12 21 13 18 10 -6 10 1 6 4
22 22 24 18 13 17 12 10 28 41 25 11 7 6 7 12 36 30 17 16 8 14 19 7 11 7 -4 10 6 3 13 2 5 1 1 5 -6 1 4 9 3 -29 20 6 2
13 14 17 8 9 10 29 58 35 38 37 16 4 -13 14 4 -13 16 30 5 13 18 8 10 6 18 1 6 3 14 6 3 6 14 4 0 -12 4 -10 1 -1 18 3 -20 -3
-4 9 4 8 14 7 8 -10 -5 -8 18 26 31 55 -10 4 -9 2 15 28 14 2 8 7 18 9 10 10 0 -7 14 8 -8 2 4 -2 13 10 9 12 1 -1 6 15 17
2 -1 3 6 15 7 4 8 11 11 -9 44 61 20 0 2 -11 26 -14 9 7 13 8 4 6 40 22 -2 3 -3 4 6 14 8 2 9 19 6 -5 11 7 14 6 -1 -0
-4 2 6 4 8 14 14 13 21 8 11 -17 55 5 24 6 -20 8 -11 -19 13 12 21 5 18 21 7 33 6 1 1 2 10 5 2 9 19 -5 -15 -5 12 5 -0 15 19
2 0 5 9 7 1 -0 3 9 22 10 17 25 46 9 32 11 -19 -9 34 -14 11 2 12 2 24 18 -2 10 -3 3 11 13 5 3 -1 4 13 8 -5 9 12 15 -3 2
-1 6 4 7 7 6 4 5 5 4 11 11 -11 80 -11 19 -7 53 -10 8 16 33 14 11 2 22 36 14 -2 -6 11 3 12 23 7 -3 -4 -5 21 10 2 4 1 12 -6
4 8 7 11 12 14 14 5 0 8 9 9 10 35 41 -22 -30 -2 8 -33 16 52 17 11 8 22 28 -7 35 -10 8 7 -3 3 10 23 22 13 11 6 12 5 11 3 7
Height
5806 5807 5808 5809 5809 5810 5811 5812 5813 5813 5814 5814 5814 5815 5814 5815 5813 5813 5811 5811 5808 5806 5805 5803 5800 5797 5795 5791 5786 5783 5778 5779 5778 5779 5777 5773 5770 5769 5759 5759 5757 5753 5751 5750 5747
5798 5799 5800 5801 5802 5802 5803 5804 5805 5806 5807 5808 5808 5808 5807 5808 5806 5809 5807 5806 5804 5802 5802 5799 5797 5794 5792 5791 5784 5779 5777 5777 5775 5778 5775 5772 5771 5769 5762 5758 5757 5751 5747 5744 5738
5788 5790 5791 5792 5794 5795 5794 5797 5798 5799 5801 5801 5802 5801 5800 5803 5803 5805 5801 5801 5799 5797 5796 5795 5793 5792 5789 5785 5781 5774 5775 5775 5774 5774 5771 5769 5767 5766 5764 5762 5756 5756 5751 5750 5748
5779 5780 5781 5783 5785 5786 5787 5787 5789 5791 5794 5795 5795 5796 5795 5796 5799 5797 5797 5797 5796 5793 5792 5791 5789 5788 5785 5781 5776 5771 5772 5772 5772 5771 5768 5767 5764 5765 5763 5765 5757 5757 5752 5749 5749
5767 5769 5771 5773 5775 5777 5778 5779 5780 5781 5784 5787 5788 5789 5791 5792 5793 5788 5790 5790 5790 5789 5788 5786 5786 5784 5782 5779 5774 5770 5768 5769 5768 5766 5765 5764 5761 5763 5762 5762 5755 5756 5752 5747 5746
5757 5759 5760 5762 5764 5767 5769 5770 5771 5773 5775 5777 5780 5782 5784 5790 5782 5784 5786 5784 5785 5784 5783 5783 5782 5781 5780 5776 5772 5767 5765 5765 5765 5765 5763 5763 5763 5762 5759 5759 5755 5754 5752 5746 5744
5744 5747 5750 5752 5754 5757 5759 5760 5762 5763 5766 5768 5770 5773 5777 5784 5778 5779 5780 5780 5778 5780 5778 5778 5777 5777 5775 5774 5769 5765 5763 5763 5764 5763 5763 5760 5760 5756 5753 5758 5756 5748 5748 5743 5741
5733 5735 5738 5741 5743 5746 5748 5750 5752 5753 5756 5758 5761 5764 5768 5772 5772 5773 5774 5775 5773 5775 5773 5772 5773 5774 5771 5771 5767 5764 5762 5764 5761 5760 5760 5759 5758 5755 5750 5755 5758 5751 5745 5740 5733
5719 5723 5726 5728 5730 5733 5735 5738 5740 5743 5746 5748 5753 5756 5762 5763 5764 5767 5767 5769 5767 5768 5768 5767 5767 5768 5768 5768 5766 5762 5761 5759 5760 5759 5756 5757 5755 5755 5753 5754 5751 5743 5740 5738 5732
5707 5710 5712 5715 5717 5718 5722 5726 5727 5733 5736 5740 5743 5749 5752 5755 5758 5758 5760 5761 5762 5761 5763 5762 5760 5764 5764 5764 5763 5761 5758 5756 5757 5754 5752 5754 5752 5752 5753 5754 5754 5746 5743 5743 5738
5695 5698 5701 5702 5704 5706 5710 5712 5715 5721 5726 5731 5734 5739 5741 5746 5748 5751 5752 5753 5755 5756 5758 5755 5754 5760 5759 5760 5760 5757 5752 5754 5755 5754 5752 5751 5750 5749 5750 5749 5750 5745 5743 5743 5739
5683 5685 5687 5689 5691 5694 5697 5699 5700 5704 5714 5719 5724 5728 5734 5734 5741 5742 5743 5745 5747 5751 5749 5748 5751 5753 5753 5755 5756 5751 5749 5752 5753 5752 5749 5752 5751 5746 5745 5747 5748 5747 5743 5742 5740
5669 5671 5675 5677 5679 5680 5683 5687 5689 5690 5698 5710 5714 5721 5722 5726 5730 5735 5733 5735 5738 5744 5741 5742 5748 5747 5748 5749 5751 5750 5748 5749 5751 5751 5750 5750 5750 5747 5747 5742 5747 5749 5745 5743 5743
5653 5655 5659 5661 5666 5665 5671 5675 5675 5678 5683 5698 5702 5709 5711 5713 5717 5722 5724 5727 5728 5735 5735 5733 5741 5739 5742 5745 5746 5747 5746 5745 5747 5746 5747 5748 5747 5746 5743 5741 5743 5749 5748 5745 5744
5636 5638 5642 5646 5648 5649 5660 5660 5661 5666 5669 5686 5685 5695 5701 5705 5710 5711 5713 5715 5719 5725 5726 5731 5731 5734 5735 5739 5741 5744 5742 5740 5743 5743 5744 5744 5743 5744 5744 5741 5742 5746 5746 5745 5745
5620 5622 5625 5629 5630 5634 5640 5644 5646 5652 5659 5670 5678 5682 5685 5693 5698 5698 5703 5707 5712 5713 5714 5718 5722 5725 5732 5733 5736 5738 5738 5737 5738 5739 5740 5742 5739 5740 5739 5739 5738 5740 5739 5742 5745
5602 5604 5609 5614 5613 5618 5622 5625 5627 5631 5659 5669 5668 5667 5670 5678 5686 5687 5691 5696 5700 5704 5707 5715 5716 5718 5722 5726 5730 5731 5732 5733 5734 5735 5738 5735 5734 5735 5736 5736 5737 5737 5734 5739 5742
5583 5586 5591 5598 5594 5600 5601 5607 5604 5632 5645 5656 5654 5655 5655 5664 5670 5674 5678 5683 5689 5693 5698 5702 5705 5710 5717 5720 5725 5726 5728 5728 5730 5732 5731 5733 5734 5733 5733 5733 5732 5731 5732 5733 5734
5563 5567 5576 5580 5578 5582 5584 5583 5600 5622 5631 5638 5640 5635 5643 5651 5657 5661 5666 5673 5680 5685 5688 5694 5697 5707 5709 5713 5718 5721 5720 5727 5725 5726 5726 5729 5730 5728 5732 5727 5731 5733 5732 5729 5729
5549 5553 5563 5564 5566 5566 5569 5578 5589 5604 5611 5615 5616 5620 5628 5640 5646 5649 5655 5666 5669 5675 5680 5685 5688 5695 5702 5706 5709 5711 5718 5718 5717 5720 5721 5725 5724 5726 5727 5728 5726 5727 5727 5728 5726
5538 5542 5552 5554 5553 5557 5566 5574 5579 5581 5585 5593 5597 5612 5614 5620 5628 5637 5642 5651 5658 5666 5672 5677 5678 5687 5690 5693 5701 5706 5707 5709 5714 5715 5716 5719 5722 5721 5722 5722 5724 5723 5722 5723 5725
5528 5533 5542 5545 5548 5554 5559 5564 5573 5573 5574 5574 5582 5592 5605 5612 5614 5619 5627 5636 5645 5654 5660 5667 5671 5675 5681 5683 5692 5698 5701 5705 5706 5711 5712 5713 5718 5714 5721 5720 5719 5719 5717 5715 5715
5520 5526 5530 5535 5539 5544 5550 5555 5561 5565 5568 5571 5572 5583 5593 5599 5606 5609 5620 5630 5634 5642 5648 5657 5660 5664 5671 5676 5681 5685 5693 5698 5702 5705 5705 5706 5712 5713 5713 5711 5712 5714 5713 5712 5710
5513 5517 5519 5525 5530 5537 5541 5546 5551 5557 5560 5563 5566 5575 5587 5592 5594 5606 5611 5622 5627 5630 5636 5646 5651 5656 5662 5669 5674 5677 5685 5690 5695 5695 5699 5699 5704 5707 5708 5709 5710 5708 5708 5708 5706
5502 5507 5512 5516 5521 5529 5535 5541 5543 5548 5551 5555 5561 5565 5580 5583 5591 5599 5609 5612 5618 5624 5628 5635 5643 5650 5658 5663 5667 5673 5679 5685 5686 5690 5690 5696 5696 5700 5702 5704 5702 5701 5701 5701 5699
5490 5496 5502 5508 5513 5519 5527 5531 5535 5541 5544 5549 5555 5560 5568 5579 5590 5596 5600 5607 5607 5615 5620 5627 5633 5641 5647 5654 5659 5664 5666 5675 5680 5684 5685 5687 5690 5693 5695 5696 5696 5695 5693 5693 5693
5478 5485 5489 5495 5502 5509 5516 5524 5529 5535 5537 5541 5547 5551 5556 5572 5580 5586 5591 5595 5595 5604 5612 5618 5624 5632 5637 5647 5650 5652 5657 5666 5673 5674 5678 5680 5684 5689 5687 5688 5688 5689 5688 5689 5689